Home > Weather > Sfax > Past weeks

Flag for Tunisia Weather for the Past 2 Weeks in Sfax, Tunisia

Now
66 °F

Passing clouds.


Feels Like: 66 °F
Forecast: 48 / 77 °F
Wind: 7 mph from South

Location: Sfax El-Maou

Current Time: Feb 11, 2016 at 6:39:32 PM

Latest Report: Feb 11, 2016 at 6:00 PM


Visibility: N/A

Pressure: 29.92 "Hg

Humidity: 64%

Dew point: 54 °F

Location of SfaxLocation

Historic Weather in Sfax — Graph

°F

Sfax Temperature Yesterday

Maximum temperature yesterday: 73 °F (at 3:00 PM)
Minimum temperature yesterday: 52 °F (at 7:00 AM)
Average temperature yesterday: 63 °F

High & Low Weather Summary for the Past Weeks

 TemperatureHumidityPressure
High77 °F (Feb 11, 2:00 PM)100% (Jan 27, 11:00 PM)30.48 "Hg (Jan 27, 11:00 PM)
Low41 °F (Jan 28, 4:00 AM)29% (Feb 10, 2:00 PM)29.92 "Hg (Feb 11, 2:00 PM)
Average57 °F65%30.29 "Hg
* Reported Jan 27 5:00 PM — Feb 11 5:00 PM, Sfax, Weather by CustomWeather, © 2016

Note: Actual official high and low records may vary slightly from our data, if they occured in-between our weather recording intervals... More about our weather records

Advertising

Sfax Weather History for the Previous 24 Hours

 ConditionsComfort  
Time TempWeatherWind HumidityBarometerVisibility
5:00 PM
Thu, Feb 11
72 °FPassing clouds.8 mph47%29.92 "HgN/A
4:00 PM73 °FPassing clouds.12 mph44%29.92 "HgN/A
3:00 PM75 °FPassing clouds.10 mph41%29.92 "HgN/A
2:00 PM77 °FPassing clouds.8 mph36%29.92 "HgN/A
1:00 PM75 °FPassing clouds.12 mph36%29.95 "HgN/A
12:00 PM73 °FPassing clouds.8 mph38%29.98 "HgN/A
11:00 AM70 °FPassing clouds.5 mph46%30.01 "HgN/A
10:00 AM63 °FPassing clouds.3 mph59%29.98 "HgN/A
9:00 AM55 °FPassing clouds.3 mph72%29.98 "HgN/A
8:00 AM52 °FClear.3 mph82%29.98 "Hg5 mi
7:00 AM50 °FClear.2 mph88%29.98 "Hg5 mi
6:00 AM46 °FClear.3 mph93%29.95 "Hg5 mi
5:00 AM50 °FClear.3 mph94%29.98 "Hg5 mi
4:00 AM50 °FClear.2 mph88%29.98 "Hg5 mi
3:00 AM50 °FClear.2 mph88%29.98 "Hg10 mi
1:00 AM57 °FPassing clouds.3 mph88%30.01 "HgN/A
12:00 AM59 °FClear.3 mph77%30.01 "Hg10 mi
11:00 PM
Wed, Feb 10
55 °FPassing clouds.3 mph59%30.01 "HgN/A
10:00 PM59 °FClear.No wind51%30.01 "Hg10 mi
9:00 PM59 °FPassing clouds.No wind51%30.01 "HgN/A
8:00 PM66 °FPassing clouds.2 mph37%30.01 "HgN/A
7:00 PM66 °FPassing clouds.No wind37%30.01 "HgN/A
6:00 PM70 °FPassing clouds.9 mph31%29.98 "HgN/A
Weather by CustomWeather, © 2016

See weather overviewHow to use our weather pages